owner,sensor,date,latitude,longitude,vertical_datum,sea_water_practical_salinity,qcFlag 
TCOON,ioos:station:TCOON:043:1,2011-10-01T00:00:00Z,27.8838,-97.5332,0.0,46.7,1111122 
TCOON,ioos:station:TCOON:043:1,2011-10-01T00:30:00Z,27.8838,-97.5332,0.0,51.2,1111122 
TCOON,ioos:station:TCOON:043:1,2011-10-01T01:30:00Z,27.8838,-97.5332,0.0,51.3,1111122 
TCOON,ioos:station:TCOON:043:1,2011-10-01T02:00:00Z,27.8838,-97.5332,0.0,51.6,1111122 
TCOON,ioos:station:TCOON:043:1,2011-10-01T02:30:00Z,27.8838,-97.5332,0.0,51.8,1111122 
TCOON,ioos:station:TCOON:043:1,2011-10-01T03:00:00Z,27.8838,-97.5332,0.0,51.9,1111122 
TCOON,ioos:station:TCOON:043:1,2011-10-01T03:30:00Z,27.8838,-97.5332,0.0,52.1,1111122 
TCOON,ioos:station:TCOON:043:1,2011-10-01T04:00:00Z,27.8838,-97.5332,0.0,52.2,1111122 
TCOON,ioos:station:TCOON:043:1,2011-10-01T04:30:00Z,27.8838,-97.5332,0.0,52.3,1111122 
TCOON,ioos:station:TCOON:043:1,2011-10-01T07:00:00Z,27.8838,-97.5332,0.0,51.2,1111122 
TCOON,ioos:station:TCOON:043:1,2011-10-01T07:30:00Z,27.8838,-97.5332,0.0,50.5,1111122 
TCOON,ioos:station:TCOON:043:1,2011-10-01T08:00:00Z,27.8838,-97.5332,0.0,50.2,1111122 
TCOON,ioos:station:TCOON:043:1,2011-10-01T08:30:00Z,27.8838,-97.5332,0.0,48.9,1111122 
TCOON,ioos:station:TCOON:043:1,2011-10-01T09:30:00Z,27.8838,-97.5332,0.0,47.3,1111122 
TCOON,ioos:station:TCOON:043:1,2011-10-01T10:00:00Z,27.8838,-97.5332,0.0,46.9,1111122 
TCOON,ioos:station:TCOON:043:1,2011-10-01T10:30:00Z,27.8838,-97.5332,0.0,46.5,1111122 
TCOON,ioos:station:TCOON:043:1,2011-10-01T11:00:00Z,27.8838,-97.5332,0.0,46.0,1111122 
TCOON,ioos:station:TCOON:043:1,2011-10-01T11:30:00Z,27.8838,-97.5332,0.0,45.8,1111122 
TCOON,ioos:station:TCOON:043:1,2011-10-01T12:00:00Z,27.8838,-97.5332,0.0,45.6,1111122 
TCOON,ioos:station:TCOON:043:1,2011-10-01T12:30:00Z,27.8838,-97.5332,0.0,45.3,1111122 
TCOON,ioos:station:TCOON:043:1,2011-10-01T13:00:00Z,27.8838,-97.5332,0.0,45.1,1111122 
TCOON,ioos:station:TCOON:043:1,2011-10-01T13:30:00Z,27.8838,-97.5332,0.0,45.0,1111122 
TCOON,ioos:station:TCOON:043:1,2011-10-01T14:30:00Z,27.8838,-97.5332,0.0,44.7,1111122 
TCOON,ioos:station:TCOON:043:1,2011-10-01T15:00:00Z,27.8838,-97.5332,0.0,44.6,1111122 
TCOON,ioos:station:TCOON:043:1,2011-10-01T15:30:00Z,27.8838,-97.5332,0.0,44.6,1111122 
TCOON,ioos:station:TCOON:043:1,2011-10-01T16:00:00Z,27.8838,-97.5332,0.0,44.5,1111122 
TCOON,ioos:station:TCOON:043:1,2011-10-01T16:30:00Z,27.8838,-97.5332,0.0,44.4,1111122 
TCOON,ioos:station:TCOON:043:1,2011-10-01T17:00:00Z,27.8838,-97.5332,0.0,44.3,1111122 
TCOON,ioos:station:TCOON:043:1,2011-10-01T17:30:00Z,27.8838,-97.5332,0.0,44.2,1111122 
TCOON,ioos:station:TCOON:043:1,2011-10-01T18:00:00Z,27.8838,-97.5332,0.0,44.3,1111122 
TCOON,ioos:station:TCOON:043:1,2011-10-01T18:30:00Z,27.8838,-97.5332,0.0,44.4,1111122 
TCOON,ioos:station:TCOON:043:1,2011-10-01T20:30:00Z,27.8838,-97.5332,0.0,44.6,1111122 
TCOON,ioos:station:TCOON:043:1,2011-10-01T21:00:00Z,27.8838,-97.5332,0.0,44.3,1111122 
TCOON,ioos:station:TCOON:043:1,2011-10-01T22:30:00Z,27.8838,-97.5332,0.0,44.5,1111122 
TCOON,ioos:station:TCOON:043:1,2011-10-01T23:00:00Z,27.8838,-97.5332,0.0,44.9,1111122 
TCOON,ioos:station:TCOON:043:1,2011-10-01T23:30:00Z,27.8838,-97.5332,0.0,45.0,1111122 
TCOON,ioos:station:TCOON:043:1,2011-10-02T00:30:00Z,27.8838,-97.5332,0.0,45.2,1111122 
TCOON,ioos:station:TCOON:043:1,2011-10-02T01:00:00Z,27.8838,-97.5332,0.0,45.1,1111122 
TCOON,ioos:station:TCOON:043:1,2011-10-02T01:30:00Z,27.8838,-97.5332,0.0,45.2,1111122 
TCOON,ioos:station:TCOON:043:1,2011-10-02T02:00:00Z,27.8838,-97.5332,0.0,45.1,1111122 
TCOON,ioos:station:TCOON:043:1,2011-10-02T02:30:00Z,27.8838,-97.5332,0.0,44.9,1111122 
TCOON,ioos:station:TCOON:043:1,2011-10-02T03:00:00Z,27.8838,-97.5332,0.0,44.8,1111122 
TCOON,ioos:station:TCOON:043:1,2011-10-02T03:30:00Z,27.8838,-97.5332,0.0,44.8,1111122 
TCOON,ioos:station:TCOON:043:1,2011-10-02T04:30:00Z,27.8838,-97.5332,0.0,44.9,1111122 
TCOON,ioos:station:TCOON:043:1,2011-10-02T05:00:00Z,27.8838,-97.5332,0.0,44.9,1111122 
TCOON,ioos:station:TCOON:043:1,2011-10-02T06:00:00Z,27.8838,-97.5332,0.0,45.4,1111122 
TCOON,ioos:station:TCOON:043:1,2011-10-02T06:30:00Z,27.8838,-97.5332,0.0,45.4,1111122 
TCOON,ioos:station:TCOON:043:1,2011-10-02T07:00:00Z,27.8838,-97.5332,0.0,45.2,1111122 
TCOON,ioos:station:TCOON:043:1,2011-10-02T07:30:00Z,27.8838,-97.5332,0.0,45.2,1111122 
TCOON,ioos:station:TCOON:043:1,2011-10-02T08:00:00Z,27.8838,-97.5332,0.0,45.4,1111122 
TCOON,ioos:station:TCOON:043:1,2011-10-02T08:30:00Z,27.8838,-97.5332,0.0,45.2,1111122 
TCOON,ioos:station:TCOON:043:1,2011-10-02T09:00:00Z,27.8838,-97.5332,0.0,44.8,1111122 
TCOON,ioos:station:TCOON:043:1,2011-10-02T09:30:00Z,27.8838,-97.5332,0.0,44.6,1111122 
TCOON,ioos:station:TCOON:043:1,2011-10-02T10:00:00Z,27.8838,-97.5332,0.0,44.4,1111122 
TCOON,ioos:station:TCOON:043:1,2011-10-02T10:30:00Z,27.8838,-97.5332,0.0,44.3,1111122 
TCOON,ioos:station:TCOON:043:1,2011-10-02T11:00:00Z,27.8838,-97.5332,0.0,44.4,1111122 
TCOON,ioos:station:TCOON:043:1,2011-10-02T11:30:00Z,27.8838,-97.5332,0.0,44.4,1111122 
TCOON,ioos:station:TCOON:043:1,2011-10-02T12:00:00Z,27.8838,-97.5332,0.0,44.4,1111122 
TCOON,ioos:station:TCOON:043:1,2011-10-02T12:30:00Z,27.8838,-97.5332,0.0,44.3,1111122 
TCOON,ioos:station:TCOON:043:1,2011-10-02T13:30:00Z,27.8838,-97.5332,0.0,44.4,1111122 
TCOON,ioos:station:TCOON:043:1,2011-10-02T14:30:00Z,27.8838,-97.5332,0.0,44.3,1111122 
TCOON,ioos:station:TCOON:043:1,2011-10-02T15:00:00Z,27.8838,-97.5332,0.0,44.2,1111122 
TCOON,ioos:station:TCOON:043:1,2011-10-02T15:30:00Z,27.8838,-97.5332,0.0,44.2,1111122 
TCOON,ioos:station:TCOON:043:1,2011-10-02T16:30:00Z,27.8838,-97.5332,0.0,44.3,1111122 
TCOON,ioos:station:TCOON:043:1,2011-10-02T17:00:00Z,27.8838,-97.5332,0.0,44.3,1111122 
TCOON,ioos:station:TCOON:043:1,2011-10-02T18:30:00Z,27.8838,-97.5332,0.0,43.9,1111122 
TCOON,ioos:station:TCOON:043:1,2011-10-02T19:00:00Z,27.8838,-97.5332,0.0,43.8,1111122 
TCOON,ioos:station:TCOON:043:1,2011-10-02T20:30:00Z,27.8838,-97.5332,0.0,43.7,1111122 
TCOON,ioos:station:TCOON:043:1,2011-10-02T21:00:00Z,27.8838,-97.5332,0.0,43.7,1111122 
TCOON,ioos:station:TCOON:043:1,2011-10-02T21:30:00Z,27.8838,-97.5332,0.0,43.7,1111122 
TCOON,ioos:station:TCOON:043:1,2011-10-02T22:00:00Z,27.8838,-97.5332,0.0,43.9,1111122 
TCOON,ioos:station:TCOON:043:1,2011-10-02T22:30:00Z,27.8838,-97.5332,0.0,43.9,1111122 
TCOON,ioos:station:TCOON:043:1,2011-10-02T23:00:00Z,27.8838,-97.5332,0.0,44.0,1111122 
TCOON,ioos:station:TCOON:043:1,2011-10-02T23:30:00Z,27.8838,-97.5332,0.0,44.0,1111122 
TCOON,ioos:station:TCOON:043:1,2011-10-03T00:00:00Z,27.8838,-97.5332,0.0,44.0,1111122 
TCOON,ioos:station:TCOON:043:1,2011-10-03T00:30:00Z,27.8838,-97.5332,0.0,44.0,1111122 
TCOON,ioos:station:TCOON:043:1,2011-10-03T01:30:00Z,27.8838,-97.5332,0.0,44.0,1111122 
TCOON,ioos:station:TCOON:043:1,2011-10-03T02:00:00Z,27.8838,-97.5332,0.0,45.0,1111122 
TCOON,ioos:station:TCOON:043:1,2011-10-03T02:30:00Z,27.8838,-97.5332,0.0,45.2,1111122 
TCOON,ioos:station:TCOON:043:1,2011-10-03T03:00:00Z,27.8838,-97.5332,0.0,45.1,1111122 
TCOON,ioos:station:TCOON:043:1,2011-10-03T04:00:00Z,27.8838,-97.5332,0.0,45.2,1111122 
TCOON,ioos:station:TCOON:043:1,2011-10-03T05:00:00Z,27.8838,-97.5332,0.0,45.3,1111122 
TCOON,ioos:station:TCOON:043:1,2011-10-03T05:30:00Z,27.8838,-97.5332,0.0,45.3,1111122 
TCOON,ioos:station:TCOON:043:1,2011-10-03T06:00:00Z,27.8838,-97.5332,0.0,45.4,1111122 
TCOON,ioos:station:TCOON:043:1,2011-10-03T06:30:00Z,27.8838,-97.5332,0.0,45.2,1111122 
TCOON,ioos:station:TCOON:043:1,2011-10-03T07:00:00Z,27.8838,-97.5332,0.0,45.4,1111122 
TCOON,ioos:station:TCOON:043:1,2011-10-03T07:30:00Z,27.8838,-97.5332,0.0,45.4,1111122 
TCOON,ioos:station:TCOON:043:1,2011-10-03T08:00:00Z,27.8838,-97.5332,0.0,45.4,1111122 
TCOON,ioos:station:TCOON:043:1,2011-10-03T08:30:00Z,27.8838,-97.5332,0.0,45.5,1111122 
TCOON,ioos:station:TCOON:043:1,2011-10-03T10:00:00Z,27.8838,-97.5332,0.0,45.6,1111122 
TCOON,ioos:station:TCOON:043:1,2011-10-03T10:30:00Z,27.8838,-97.5332,0.0,45.6,1111122 
TCOON,ioos:station:TCOON:043:1,2011-10-03T11:00:00Z,27.8838,-97.5332,0.0,45.6,1111122 
TCOON,ioos:station:TCOON:043:1,2011-10-03T11:30:00Z,27.8838,-97.5332,0.0,45.6,1111122 
TCOON,ioos:station:TCOON:043:1,2011-10-03T12:00:00Z,27.8838,-97.5332,0.0,45.6,1111122 
TCOON,ioos:station:TCOON:043:1,2011-10-03T12:30:00Z,27.8838,-97.5332,0.0,45.6,1111122 
TCOON,ioos:station:TCOON:043:1,2011-10-03T13:00:00Z,27.8838,-97.5332,0.0,45.6,1111122 
TCOON,ioos:station:TCOON:043:1,2011-10-03T13:30:00Z,27.8838,-97.5332,0.0,45.4,1111122 
TCOON,ioos:station:TCOON:043:1,2011-10-03T14:00:00Z,27.8838,-97.5332,0.0,45.2,1111122 
TCOON,ioos:station:TCOON:043:1,2011-10-03T14:30:00Z,27.8838,-97.5332,0.0,45.0,1111122 
TCOON,ioos:station:TCOON:043:1,2011-10-03T15:00:00Z,27.8838,-97.5332,0.0,44.8,1111122 
TCOON,ioos:station:TCOON:043:1,2011-10-03T15:30:00Z,27.8838,-97.5332,0.0,44.7,1111122 
TCOON,ioos:station:TCOON:043:1,2011-10-03T16:00:00Z,27.8838,-97.5332,0.0,44.6,1111122 
TCOON,ioos:station:TCOON:043:1,2011-10-03T17:00:00Z,27.8838,-97.5332,0.0,44.3,1111122 
TCOON,ioos:station:TCOON:043:1,2011-10-03T18:00:00Z,27.8838,-97.5332,0.0,44.3,1111122 
TCOON,ioos:station:TCOON:043:1,2011-10-03T18:30:00Z,27.8838,-97.5332,0.0,44.3,1111122 
TCOON,ioos:station:TCOON:043:1,2011-10-03T19:00:00Z,27.8838,-97.5332,0.0,44.3,1111122 
TCOON,ioos:station:TCOON:043:1,2011-10-03T20:00:00Z,27.8838,-97.5332,0.0,44.1,1111122 
TCOON,ioos:station:TCOON:043:1,2011-10-03T20:30:00Z,27.8838,-97.5332,0.0,44.2,1111122 
TCOON,ioos:station:TCOON:043:1,2011-10-03T21:30:00Z,27.8838,-97.5332,0.0,44.2,1111122 
TCOON,ioos:station:TCOON:043:1,2011-10-03T22:00:00Z,27.8838,-97.5332,0.0,44.2,1111122 
TCOON,ioos:station:TCOON:043:1,2011-10-03T23:00:00Z,27.8838,-97.5332,0.0,44.2,1111122 
TCOON,ioos:station:TCOON:043:1,2011-10-04T00:00:00Z,27.8838,-97.5332,0.0,44.4,1111122 
TCOON,ioos:station:TCOON:043:1,2011-10-04T00:30:00Z,27.8838,-97.5332,0.0,44.4,1111122 
TCOON,ioos:station:TCOON:043:1,2011-10-04T01:00:00Z,27.8838,-97.5332,0.0,44.3,1111122 
TCOON,ioos:station:TCOON:043:1,2011-10-04T01:30:00Z,27.8838,-97.5332,0.0,44.8,1111122 
TCOON,ioos:station:TCOON:043:1,2011-10-04T02:00:00Z,27.8838,-97.5332,0.0,45.6,1111122 
TCOON,ioos:station:TCOON:043:1,2011-10-04T02:30:00Z,27.8838,-97.5332,0.0,45.6,1111122 
TCOON,ioos:station:TCOON:043:1,2011-10-04T03:00:00Z,27.8838,-97.5332,0.0,45.3,1111122 
TCOON,ioos:station:TCOON:043:1,2011-10-04T04:00:00Z,27.8838,-97.5332,0.0,45.5,1111122 
TCOON,ioos:station:TCOON:043:1,2011-10-04T04:30:00Z,27.8838,-97.5332,0.0,45.7,1111122 
TCOON,ioos:station:TCOON:043:1,2011-10-04T05:00:00Z,27.8838,-97.5332,0.0,46.2,1111122 
TCOON,ioos:station:TCOON:043:1,2011-10-04T06:00:00Z,27.8838,-97.5332,0.0,46.5,1111122 
TCOON,ioos:station:TCOON:043:1,2011-10-04T06:30:00Z,27.8838,-97.5332,0.0,46.5,1111122 
TCOON,ioos:station:TCOON:043:1,2011-10-04T07:00:00Z,27.8838,-97.5332,0.0,46.5,1111122 
TCOON,ioos:station:TCOON:043:1,2011-10-04T07:30:00Z,27.8838,-97.5332,0.0,47.2,1111122 
TCOON,ioos:station:TCOON:043:1,2011-10-04T08:00:00Z,27.8838,-97.5332,0.0,48.5,1111122 
TCOON,ioos:station:TCOON:043:1,2011-10-04T08:30:00Z,27.8838,-97.5332,0.0,49.5,1111122 
TCOON,ioos:station:TCOON:043:1,2011-10-04T09:30:00Z,27.8838,-97.5332,0.0,50.6,1111122 
TCOON,ioos:station:TCOON:043:1,2011-10-04T10:00:00Z,27.8838,-97.5332,0.0,50.9,1111122 
TCOON,ioos:station:TCOON:043:1,2011-10-04T10:30:00Z,27.8838,-97.5332,0.0,51.1,1111122 
TCOON,ioos:station:TCOON:043:1,2011-10-04T11:00:00Z,27.8838,-97.5332,0.0,51.3,1111122 
TCOON,ioos:station:TCOON:043:1,2011-10-04T11:30:00Z,27.8838,-97.5332,0.0,51.5,1111122 
TCOON,ioos:station:TCOON:043:1,2011-10-04T12:00:00Z,27.8838,-97.5332,0.0,51.5,1111122 
TCOON,ioos:station:TCOON:043:1,2011-10-04T12:30:00Z,27.8838,-97.5332,0.0,51.5,1111122 
TCOON,ioos:station:TCOON:043:1,2011-10-04T13:00:00Z,27.8838,-97.5332,0.0,51.4,1111122 
TCOON,ioos:station:TCOON:043:1,2011-10-04T13:30:00Z,27.8838,-97.5332,0.0,50.9,1111122 
TCOON,ioos:station:TCOON:043:1,2011-10-04T14:30:00Z,27.8838,-97.5332,0.0,50.6,1111122 
TCOON,ioos:station:TCOON:043:1,2011-10-04T15:00:00Z,27.8838,-97.5332,0.0,49.7,1111122 
TCOON,ioos:station:TCOON:043:1,2011-10-04T15:30:00Z,27.8838,-97.5332,0.0,48.8,1111122 
TCOON,ioos:station:TCOON:043:1,2011-10-04T16:00:00Z,27.8838,-97.5332,0.0,48.4,1111122 
TCOON,ioos:station:TCOON:043:1,2011-10-04T17:00:00Z,27.8838,-97.5332,0.0,48.3,1111122 
TCOON,ioos:station:TCOON:043:1,2011-10-04T18:00:00Z,27.8838,-97.5332,0.0,50.8,1111122 
TCOON,ioos:station:TCOON:043:1,2011-10-04T18:30:00Z,27.8838,-97.5332,0.0,50.0,1111122 
TCOON,ioos:station:TCOON:043:1,2011-10-04T19:00:00Z,27.8838,-97.5332,0.0,49.2,1111122 
TCOON,ioos:station:TCOON:043:1,2011-10-04T20:00:00Z,27.8838,-97.5332,0.0,48.5,1111122 
TCOON,ioos:station:TCOON:043:1,2011-10-04T20:30:00Z,27.8838,-97.5332,0.0,48.5,1111122 
TCOON,ioos:station:TCOON:043:1,2011-10-04T21:30:00Z,27.8838,-97.5332,0.0,49.0,1111122 
TCOON,ioos:station:TCOON:043:1,2011-10-04T22:00:00Z,27.8838,-97.5332,0.0,48.6,1111122 
TCOON,ioos:station:TCOON:043:1,2011-10-04T22:30:00Z,27.8838,-97.5332,0.0,48.1,1111122 
TCOON,ioos:station:TCOON:043:1,2011-10-04T23:00:00Z,27.8838,-97.5332,0.0,48.0,1111122 
TCOON,ioos:station:TCOON:043:1,2011-10-04T23:30:00Z,27.8838,-97.5332,0.0,48.2,1111122 
TCOON,ioos:station:TCOON:043:1,2011-10-05T00:00:00Z,27.8838,-97.5332,0.0,47.9,1111122 
TCOON,ioos:station:TCOON:043:1,2011-10-05T00:30:00Z,27.8838,-97.5332,0.0,48.1,1111122 
TCOON,ioos:station:TCOON:043:1,2011-10-05T01:00:00Z,27.8838,-97.5332,0.0,48.3,1111122 
TCOON,ioos:station:TCOON:043:1,2011-10-05T02:00:00Z,27.8838,-97.5332,0.0,48.7,1111122 
TCOON,ioos:station:TCOON:043:1,2011-10-05T02:30:00Z,27.8838,-97.5332,0.0,51.2,1111122 
TCOON,ioos:station:TCOON:043:1,2011-10-05T03:00:00Z,27.8838,-97.5332,0.0,52.2,1111122 
TCOON,ioos:station:TCOON:043:1,2011-10-05T03:30:00Z,27.8838,-97.5332,0.0,51.9,1111122 
TCOON,ioos:station:TCOON:043:1,2011-10-05T04:00:00Z,27.8838,-97.5332,0.0,51.5,1111122 
TCOON,ioos:station:TCOON:043:1,2011-10-05T04:30:00Z,27.8838,-97.5332,0.0,51.8,1111122 
TCOON,ioos:station:TCOON:043:1,2011-10-05T05:00:00Z,27.8838,-97.5332,0.0,52.0,1111122 
TCOON,ioos:station:TCOON:043:1,2011-10-05T05:30:00Z,27.8838,-97.5332,0.0,52.6,1111122 
TCOON,ioos:station:TCOON:043:1,2011-10-05T06:00:00Z,27.8838,-97.5332,0.0,53.0,1111122 
TCOON,ioos:station:TCOON:043:1,2011-10-05T06:30:00Z,27.8838,-97.5332,0.0,53.4,1111122 
TCOON,ioos:station:TCOON:043:1,2011-10-05T07:00:00Z,27.8838,-97.5332,0.0,54.1,1111122 
TCOON,ioos:station:TCOON:043:1,2011-10-05T07:30:00Z,27.8838,-97.5332,0.0,54.4,1111122 
TCOON,ioos:station:TCOON:043:1,2011-10-05T08:00:00Z,27.8838,-97.5332,0.0,55.0,1111122 
TCOON,ioos:station:TCOON:043:1,2011-10-05T08:30:00Z,27.8838,-97.5332,0.0,56.5,1111122 
TCOON,ioos:station:TCOON:043:1,2011-10-05T09:00:00Z,27.8838,-97.5332,0.0,57.4,1111122 
TCOON,ioos:station:TCOON:043:1,2011-10-05T09:30:00Z,27.8838,-97.5332,0.0,58.4,1111122 
TCOON,ioos:station:TCOON:043:1,2011-10-05T10:00:00Z,27.8838,-97.5332,0.0,58.6,1111122 
TCOON,ioos:station:TCOON:043:1,2011-10-05T11:00:00Z,27.8838,-97.5332,0.0,57.7,1111122 
TCOON,ioos:station:TCOON:043:1,2011-10-05T11:30:00Z,27.8838,-97.5332,0.0,57.1,1111122 
TCOON,ioos:station:TCOON:043:1,2011-10-05T12:30:00Z,27.8838,-97.5332,0.0,55.9,1111122 
TCOON,ioos:station:TCOON:043:1,2011-10-05T13:00:00Z,27.8838,-97.5332,0.0,54.9,1111122 
TCOON,ioos:station:TCOON:043:1,2011-10-05T13:30:00Z,27.8838,-97.5332,0.0,54.5,1111122 
TCOON,ioos:station:TCOON:043:1,2011-10-05T14:30:00Z,27.8838,-97.5332,0.0,51.1,1111122 
TCOON,ioos:station:TCOON:043:1,2011-10-05T15:00:00Z,27.8838,-97.5332,0.0,50.3,1111122 
TCOON,ioos:station:TCOON:043:1,2011-10-05T15:30:00Z,27.8838,-97.5332,0.0,49.6,1111122 
TCOON,ioos:station:TCOON:043:1,2011-10-05T17:00:00Z,27.8838,-97.5332,0.0,49.0,1111122 
TCOON,ioos:station:TCOON:043:1,2011-10-05T18:30:00Z,27.8838,-97.5332,0.0,47.2,1111122 
TCOON,ioos:station:TCOON:043:1,2011-10-05T19:00:00Z,27.8838,-97.5332,0.0,47.3,1111122 
TCOON,ioos:station:TCOON:043:1,2011-10-05T20:00:00Z,27.8838,-97.5332,0.0,46.2,1111122 
TCOON,ioos:station:TCOON:043:1,2011-10-05T20:30:00Z,27.8838,-97.5332,0.0,46.4,1111122 
TCOON,ioos:station:TCOON:043:1,2011-10-05T21:00:00Z,27.8838,-97.5332,0.0,47.1,1111122 
TCOON,ioos:station:TCOON:043:1,2011-10-05T21:30:00Z,27.8838,-97.5332,0.0,47.3,1111122 
TCOON,ioos:station:TCOON:043:1,2011-10-05T22:30:00Z,27.8838,-97.5332,0.0,46.6,1111122 
TCOON,ioos:station:TCOON:043:1,2011-10-05T23:00:00Z,27.8838,-97.5332,0.0,46.3,1111122 
TCOON,ioos:station:TCOON:043:1,2011-10-05T23:30:00Z,27.8838,-97.5332,0.0,46.3,1111122 
TCOON,ioos:station:TCOON:043:1,2011-10-06T00:00:00Z,27.8838,-97.5332,0.0,46.4,1111122 
TCOON,ioos:station:TCOON:043:1,2011-10-06T00:30:00Z,27.8838,-97.5332,0.0,46.7,1111122 
TCOON,ioos:station:TCOON:043:1,2011-10-06T01:00:00Z,27.8838,-97.5332,0.0,46.6,1111122 
TCOON,ioos:station:TCOON:043:1,2011-10-06T01:30:00Z,27.8838,-97.5332,0.0,46.6,1111122 
TCOON,ioos:station:TCOON:043:1,2011-10-06T02:00:00Z,27.8838,-97.5332,0.0,46.5,1111122 
TCOON,ioos:station:TCOON:043:1,2011-10-06T02:30:00Z,27.8838,-97.5332,0.0,46.6,1111122 
TCOON,ioos:station:TCOON:043:1,2011-10-06T03:00:00Z,27.8838,-97.5332,0.0,46.9,1111122 
TCOON,ioos:station:TCOON:043:1,2011-10-06T03:30:00Z,27.8838,-97.5332,0.0,47.1,1111122 
TCOON,ioos:station:TCOON:043:1,2011-10-06T04:00:00Z,27.8838,-97.5332,0.0,47.5,1111122 
TCOON,ioos:station:TCOON:043:1,2011-10-06T04:30:00Z,27.8838,-97.5332,0.0,48.3,1111122 
TCOON,ioos:station:TCOON:043:1,2011-10-06T05:00:00Z,27.8838,-97.5332,0.0,49.8,1111122 
TCOON,ioos:station:TCOON:043:1,2011-10-06T05:30:00Z,27.8838,-97.5332,0.0,50.6,1111122 
TCOON,ioos:station:TCOON:043:1,2011-10-06T06:30:00Z,27.8838,-97.5332,0.0,50.4,1111122 
TCOON,ioos:station:TCOON:043:1,2011-10-06T07:00:00Z,27.8838,-97.5332,0.0,50.6,1111122 
TCOON,ioos:station:TCOON:043:1,2011-10-06T07:30:00Z,27.8838,-97.5332,0.0,50.5,1111122 
TCOON,ioos:station:TCOON:043:1,2011-10-06T08:00:00Z,27.8838,-97.5332,0.0,50.5,1111122 
TCOON,ioos:station:TCOON:043:1,2011-10-06T08:30:00Z,27.8838,-97.5332,0.0,50.6,1111122 
TCOON,ioos:station:TCOON:043:1,2011-10-06T09:00:00Z,27.8838,-97.5332,0.0,50.5,1111122 
TCOON,ioos:station:TCOON:043:1,2011-10-06T09:30:00Z,27.8838,-97.5332,0.0,50.4,1111122 
TCOON,ioos:station:TCOON:043:1,2011-10-06T10:00:00Z,27.8838,-97.5332,0.0,50.4,1111122 
TCOON,ioos:station:TCOON:043:1,2011-10-06T10:30:00Z,27.8838,-97.5332,0.0,50.4,1111122 
TCOON,ioos:station:TCOON:043:1,2011-10-06T11:00:00Z,27.8838,-97.5332,0.0,50.4,1111122 
TCOON,ioos:station:TCOON:043:1,2011-10-06T11:30:00Z,27.8838,-97.5332,0.0,50.4,1111122 
TCOON,ioos:station:TCOON:043:1,2011-10-06T12:00:00Z,27.8838,-97.5332,0.0,50.4,1111122 
TCOON,ioos:station:TCOON:043:1,2011-10-06T12:30:00Z,27.8838,-97.5332,0.0,50.4,1111122 
TCOON,ioos:station:TCOON:043:1,2011-10-06T13:30:00Z,27.8838,-97.5332,0.0,50.5,1111122 
TCOON,ioos:station:TCOON:043:1,2011-10-06T14:00:00Z,27.8838,-97.5332,0.0,50.6,1111122 
TCOON,ioos:station:TCOON:043:1,2011-10-06T14:30:00Z,27.8838,-97.5332,0.0,50.5,1111122 
TCOON,ioos:station:TCOON:043:1,2011-10-06T15:30:00Z,27.8838,-97.5332,0.0,50.4,1111122 
TCOON,ioos:station:TCOON:043:1,2011-10-06T16:00:00Z,27.8838,-97.5332,0.0,50.1,1111122 
TCOON,ioos:station:TCOON:043:1,2011-10-06T16:30:00Z,27.8838,-97.5332,0.0,49.8,1111122 
TCOON,ioos:station:TCOON:043:1,2011-10-06T17:00:00Z,27.8838,-97.5332,0.0,49.3,1111122 
TCOON,ioos:station:TCOON:043:1,2011-10-06T18:00:00Z,27.8838,-97.5332,0.0,47.9,1111122 
TCOON,ioos:station:TCOON:043:1,2011-10-06T18:30:00Z,27.8838,-97.5332,0.0,47.1,1111122 
TCOON,ioos:station:TCOON:043:1,2011-10-06T19:00:00Z,27.8838,-97.5332,0.0,46.7,1111122 
TCOON,ioos:station:TCOON:043:1,2011-10-06T22:00:00Z,27.8838,-97.5332,0.0,45.3,1111122 
TCOON,ioos:station:TCOON:043:1,2011-10-06T22:30:00Z,27.8838,-97.5332,0.0,45.2,1111122 
TCOON,ioos:station:TCOON:043:1,2011-10-06T23:00:00Z,27.8838,-97.5332,0.0,45.3,1111122 
TCOON,ioos:station:TCOON:043:1,2011-10-06T23:30:00Z,27.8838,-97.5332,0.0,45.5,1111122 
TCOON,ioos:station:TCOON:043:1,2011-10-07T00:00:00Z,27.8838,-97.5332,0.0,45.8,1111122 
TCOON,ioos:station:TCOON:043:1,2011-10-07T00:30:00Z,27.8838,-97.5332,0.0,46.1,1111122 
TCOON,ioos:station:TCOON:043:1,2011-10-07T01:00:00Z,27.8838,-97.5332,0.0,46.2,1111122 
TCOON,ioos:station:TCOON:043:1,2011-10-07T01:30:00Z,27.8838,-97.5332,0.0,46.2,1111122 
TCOON,ioos:station:TCOON:043:1,2011-10-07T02:00:00Z,27.8838,-97.5332,0.0,46.0,1111122 
TCOON,ioos:station:TCOON:043:1,2011-10-07T02:30:00Z,27.8838,-97.5332,0.0,46.0,1111122 
TCOON,ioos:station:TCOON:043:1,2011-10-07T03:00:00Z,27.8838,-97.5332,0.0,46.0,1111122 
TCOON,ioos:station:TCOON:043:1,2011-10-07T03:30:00Z,27.8838,-97.5332,0.0,45.9,1111122 
TCOON,ioos:station:TCOON:043:1,2011-10-07T04:30:00Z,27.8838,-97.5332,0.0,46.0,1111122 
TCOON,ioos:station:TCOON:043:1,2011-10-07T05:00:00Z,27.8838,-97.5332,0.0,46.0,1111122 
TCOON,ioos:station:TCOON:043:1,2011-10-07T05:30:00Z,27.8838,-97.5332,0.0,46.0,1111122 
TCOON,ioos:station:TCOON:043:1,2011-10-07T06:00:00Z,27.8838,-97.5332,0.0,46.0,1111122 
TCOON,ioos:station:TCOON:043:1,2011-10-07T06:30:00Z,27.8838,-97.5332,0.0,46.2,1111122 
TCOON,ioos:station:TCOON:043:1,2011-10-07T07:00:00Z,27.8838,-97.5332,0.0,46.2,1111122 
TCOON,ioos:station:TCOON:043:1,2011-10-07T07:30:00Z,27.8838,-97.5332,0.0,46.2,1111122 
TCOON,ioos:station:TCOON:043:1,2011-10-07T09:00:00Z,27.8838,-97.5332,0.0,46.1,1111122 
TCOON,ioos:station:TCOON:043:1,2011-10-07T09:30:00Z,27.8838,-97.5332,0.0,46.1,1111122 
TCOON,ioos:station:TCOON:043:1,2011-10-07T10:00:00Z,27.8838,-97.5332,0.0,46.1,1111122 
TCOON,ioos:station:TCOON:043:1,2011-10-07T10:30:00Z,27.8838,-97.5332,0.0,46.4,1111122 
TCOON,ioos:station:TCOON:043:1,2011-10-07T11:30:00Z,27.8838,-97.5332,0.0,46.8,1111122 
TCOON,ioos:station:TCOON:043:1,2011-10-07T12:00:00Z,27.8838,-97.5332,0.0,46.8,1111122 
TCOON,ioos:station:TCOON:043:1,2011-10-07T12:30:00Z,27.8838,-97.5332,0.0,46.8,1111122 
TCOON,ioos:station:TCOON:043:1,2011-10-07T13:00:00Z,27.8838,-97.5332,0.0,46.8,1111122 
TCOON,ioos:station:TCOON:043:1,2011-10-07T13:30:00Z,27.8838,-97.5332,0.0,46.8,1111122 
TCOON,ioos:station:TCOON:043:1,2011-10-07T14:00:00Z,27.8838,-97.5332,0.0,46.7,1111122 
TCOON,ioos:station:TCOON:043:1,2011-10-07T15:00:00Z,27.8838,-97.5332,0.0,46.2,1111122 
TCOON,ioos:station:TCOON:043:1,2011-10-07T16:00:00Z,27.8838,-97.5332,0.0,46.3,1111122 
TCOON,ioos:station:TCOON:043:1,2011-10-07T16:30:00Z,27.8838,-97.5332,0.0,46.1,1111122 
TCOON,ioos:station:TCOON:043:1,2011-10-07T17:00:00Z,27.8838,-97.5332,0.0,46.0,1111122 
TCOON,ioos:station:TCOON:043:1,2011-10-07T18:00:00Z,27.8838,-97.5332,0.0,45.6,1111122 
TCOON,ioos:station:TCOON:043:1,2011-10-07T18:30:00Z,27.8838,-97.5332,0.0,45.5,1111122 
TCOON,ioos:station:TCOON:043:1,2011-10-07T19:00:00Z,27.8838,-97.5332,0.0,45.3,1111122 
TCOON,ioos:station:TCOON:043:1,2011-10-07T20:00:00Z,27.8838,-97.5332,0.0,45.3,1111122 
TCOON,ioos:station:TCOON:043:1,2011-10-07T21:00:00Z,27.8838,-97.5332,0.0,45.1,1111122 
TCOON,ioos:station:TCOON:043:1,2011-10-07T21:30:00Z,27.8838,-97.5332,0.0,45.0,1111122 
TCOON,ioos:station:TCOON:043:1,2011-10-07T22:00:00Z,27.8838,-97.5332,0.0,44.9,1111122 
TCOON,ioos:station:TCOON:043:1,2011-10-07T22:30:00Z,27.8838,-97.5332,0.0,44.9,1111122 
TCOON,ioos:station:TCOON:043:1,2011-10-08T00:00:00Z,27.8838,-97.5332,0.0,45.0,1111122 
TCOON,ioos:station:TCOON:043:1,2011-10-08T01:00:00Z,27.8838,-97.5332,0.0,45.0,1111122 
TCOON,ioos:station:TCOON:043:1,2011-10-08T01:30:00Z,27.8838,-97.5332,0.0,45.1,1111122 
TCOON,ioos:station:TCOON:043:1,2011-10-08T03:30:00Z,27.8838,-97.5332,0.0,45.3,1111122 
TCOON,ioos:station:TCOON:043:1,2011-10-08T04:30:00Z,27.8838,-97.5332,0.0,45.4,1111122 
TCOON,ioos:station:TCOON:043:1,2011-10-08T05:00:00Z,27.8838,-97.5332,0.0,45.5,1111122 
TCOON,ioos:station:TCOON:043:1,2011-10-08T05:30:00Z,27.8838,-97.5332,0.0,45.6,1111122 
TCOON,ioos:station:TCOON:043:1,2011-10-08T06:30:00Z,27.8838,-97.5332,0.0,45.6,1111122 
TCOON,ioos:station:TCOON:043:1,2011-10-08T07:30:00Z,27.8838,-97.5332,0.0,45.6,1111122 